Location: Rehoboth Beach
(38.7438°N, 75.1341°W)
Time: 11:47:33
(UTC-05:00)

Cosmos 1452 Rocket - Visible Passes

Search period start: 27 February 2015 00:00
Search period end: 09 March 2015 01:00
Orbit: 767 x 777 km, 74.1° (Epoch: 26 February)

Date Brightness Start Highest point End Pass type
(mag) Time Alt. Az. Time Alt. Az. Time Alt. Az.
01 Mar 6.3 05:57:29 10° NNE 06:00:14 14° NE 06:03:13 10° E visible
04 Mar 5.9 05:50:55 10° N 05:55:10 25° ENE 05:59:31 10° ESE visible
05 Mar 6.3 05:15:57 10° NNE 05:18:58 15° NE 05:22:10 10° E visible
06 Mar 4.5 19:16:02 10° SSE 19:19:30 26° ESE 19:19:30 26° ESE visible
06 Mar 5.4 20:57:35 10° SW 21:07:37 - N 21:00:13 25° WSW visible
07 Mar 4.9 05:44:56 10° N 05:49:57 43° ENE 05:54:58 10° SE visible
07 Mar 4.9 18:41:43 10° SE 18:44:41 16° E 18:47:53 10° ENE visible
07 Mar 4.1 20:21:13 10° SSW 20:26:24 57° WNW 20:31:36 10° N visible
08 Mar 5.8 06:09:30 10° N 06:13:53 26° ENE 06:18:20 10° ESE visible
08 Mar 3.4 20:45:14 10° SSW 20:50:30 85° ESE 20:55:49 10° NNE visible
08 Mar 6.5 22:31:13 10° W 22:33:30 12° NW 22:35:32 10° NNW visible
